Regional Weather Roundup
Issued by NWS

Home | Current Version | Previous Version | Graphics & Text | Print | Product List | Glossary On
Versions: 1 2 3 4 5 6 7 8 9 10 11 12 13 14 15 16 17 18 19 20 21 22 23 24 25 26 27 28 29 30 31 32 33 34 35 36 37 38 39 40 41 42 43 44 45 46 47 48 49 50
000
ASUS43 KMKX 202212
RWRWI

WISCONSIN REGIONAL WEATHER ROUNDUP
NATIONAL WEATHER SERVICE MILWAUKEE/SULLIVAN WI
500 PM CDT WED SEP 20 2017

NOTE: "FAIR" INDICATES FEW OR NO CLOUDS BELOW 12,000 FEET WITH NO
SIGNIFICANT WEATHER AND/OR OBSTRUCTIONS TO VISIBILITY.

WIZ001-002-006>008-014>016-023>028-202300-
NORTHWEST WISCONSIN

CITY           SKY/WX    TMP DP  RH WIND       PRES   REMARKS
SUPERIOR ARPT  SUNNY     72  52  49 W9        29.80R
ASHLAND        SUNNY     76  59  55 W10       29.79R
HAYWARD        SUNNY     74  57  55 SW6       29.82R
SIREN          SUNNY     73  50  44 W12       29.84R
CUMBERLAND     SUNNY     72  52  49 W9        29.84R
RICE LAKE      SUNNY     76  53  46 SW6       29.85R
CHETEK         SUNNY     75  55  50 W9        29.83R
LADYSMITH      CLOUDY    73  60  65 W6        29.85R
EAU CLAIRE     PTSUNNY   75  59  57 NW5       29.82R
MENOMONIE      MOSUNNY   74  57  54 W7        29.83R
NEW RICHMOND   SUNNY     73  48  40 W10       29.85R
OSCEOLA        SUNNY     75  50  41 W8        29.87R
$$

WIZ003>005-009-010-017-018-202300-
NORTH CENTRAL WISCONSIN

CITY           SKY/WX    TMP DP  RH WIND       PRES   REMARKS
MANITOWISH WTR CLOUDY    67  67 100 SW3       29.84R
ARBOR VITAE    MOSUNNY   70  68  96 S6        29.83S FOG
WOODRUFF       MOSUNNY   70  68  96 S6        29.83S FOG
RHINELANDER    CLOUDY    70  68  93 S3        29.85R
EAGLE RIVER    DRIZZLE   68  67  98 CALM      29.84R
LAND O LAKES   DRIZZLE   68  67  97 CALM      29.86R
PHILLIPS       CLOUDY    72  68  87 W3        29.83R
TOMAHAWK         N/A     71  66  86 CALM      29.84R
MEDFORD        MOSUNNY   74  68  81 S5        29.82F
MERRILL          N/A     73  72  94 CALM      29.82S
$$

WIZ029-030-035-036-043>047-202300-
CENTRAL WISCONSIN

CITY           SKY/WX    TMP DP  RH WIND       PRES   REMARKS
WAUSAU         CLOUDY    74  70  87 CALM      29.80R
MOSINEE        LGT RAIN  72  72 100 CALM      29.82S
MARSHFIELD     CLOUDY    76  69  79 SW3       29.81R
STEVENS POINT  CLOUDY    73  72  94 CALM      29.82R
WAUPACA        DRIZZLE   82  72  71 CALM      29.79S HX  87
WAUTOMA        CLOUDY    81  76  84 CALM      29.79R HX  87
WISC RAPIDS    TSTM      76  69  79 S7        29.81S
CAMP DOUGLAS   CLOUDY    75  75 100 CALM      29.79R THUNDER
$$

WIZ011>013-019>022-031-037>040-048>050-202300-
NORTHEAST WISCONSIN

CITY           SKY/WX    TMP DP  RH WIND       PRES   REMARKS
ANTIGO         CLOUDY    71  69  93 SE3       29.84S
SHAWANO        RAIN      80  70  70 SE3       29.80S HX  83
OCONTO         SUNNY     77  66  68 S7        29.82R
STURGEON BAY   SUNNY     75  65  70 S20G25    29.84R
GREEN BAY      SUNNY     80  69  69 S14       29.82R HX  83
MANITOWOC      SUNNY     73  67  81 S18G24    29.83
APPLETON       PTSUNNY   79  64  61 SE13G18   29.79R HX  81
CLINTONVILLE   LGT RAIN  77  68  73 CALM      29.79F
OSHKOSH        CLOUDY    81  70  69 SE8       29.79R HX  84
$$

WIZ032>034-041-042-053>061-202300-
SOUTHWEST WISCONSIN

CITY           SKY/WX    TMP DP  RH WIND       PRES   REMARKS
LA CROSSE      PTSUNNY   81  66  61 NW15        N/A  HX  83
SPARTA         RAIN      75  72  89 SW5       29.80R
VIROQUA        PTSUNNY   80  72  77 SW6       29.81S HX  83
BOSCOBEL       MOSUNNY   89  71  55 SW5       29.78S HX  95
PRAIRIE DU CHI PTSUNNY   86  68  54 S5        29.77S HX  89
PLATTEVILLE    MOSUNNY   88  70  54 S13       29.81S HX  93
$$

WIZ056-057-062-063-064-067-068-202300-
SOUTH CENTRAL WISCONSIN

CITY           SKY/WX    TMP DP  RH WIND       PRES   REMARKS
REEDSBURG      MOSUNNY   86  72  62 S7        29.78F HX  93
BARABOO/DELLS  NOT AVBL
LONE ROCK      MOSUNNY   87  72  60 S10       29.77F HX  93
MINERAL POINT  MOSUNNY   88  72  58 S10       29.82R HX  94
MADISON        PTSUNNY   89  69  51 S13G22    29.78R HX  93
MIDDLETON      CLOUDY    89  69  50 SW12G17   29.80R HX  93
WATERTOWN      SUNNY     89  70  53 S13G22    29.79R HX  93
MONROE         SUNNY     90  68  48 S18       29.81R HX  93
JANESVILLE     SUNNY     93  64  38 S20       29.78F HX  95
$$

WIZ051-052-058>065-066-070>072-202300-
SOUTHEAST WISCONSIN

CITY           SKY/WX    TMP DP  RH WIND       PRES   REMARKS
MILWAUKEE      MOSUNNY   85  69  58 S16G28    29.82F HX  89
WAUKESHA       SUNNY     88  66  48 SE21G30   29.82F HX  90
MILWAUKEE/TIMM SUNNY     86  64  48 S13G20    29.82F HX  87
RACINE         SUNNY     81  70  69 S14G24    29.85F HX  84
BURLINGTON     SUNNY     90  69  49 S13G18    29.82S HX  94
KENOSHA        SUNNY     86  69  56 SE12      29.84S HX  90
FOND DU LAC    MOSUNNY   85  69  58 S10       29.79R HX  89
SHEBOYGAN      SUNNY     76  70  82 S15G28    29.82F
WEST BEND        N/A     82  70  65 SE9       29.81S HX  86
JUNEAU         MOSUNNY   87  69  54 S13       29.81S HX  92
$$

LSZ147-162-202300-
LAKE SUPERIOR

STATION/POSITION TIME  TEMP    WIND        PRES    WAVE
                       AIR SEA DIR/SP/G            HT/PER
                 (UTC) (F)     (DEG/KT/KT) (MB)    (FT/S)
W MID LAKE BUOY  2150   61 55  230/ 12/ 12 1007.7R   2/ 4
DEVILS ISLAND    2200   66     240/ 15/ 17 1008.1R
SAXON HARBOR     2130   74     230/  3/  9 1008.5R
$$

LMZ867-665-643>646-202300-
LAKE MICHIGAN

STATION/POSITION TIME  TEMP    WIND        PRES    WAVE
                       AIR SEA DIR/SP/G            HT/PER
                 (UTC) (F)     (DEG/KT/KT) (MB)    (FT/S)
S GREEN BAY BUOY 2200   72 66  190/ 10/ 14 1009.8
N MID LAKE BUOY  2150   67 65  130/  4/  6 1011.0F   2/ 4
NORTHPORT PIER   2140   71     150/  7/ 12 1010.2S
KEWAUNEE LAKESHO 2142   68     180/ 15/ 17 1009.4F
SHEBOYGAN LAKESH 2200   68     180/ 13/ 13 1009.2F
PORT WASHINGTON  2130   74     170/  7/ 11 1010.8F
ATWATER BUOY     2139   71 67  160/ 17/ 23 1009.9F
MILWAUKEE LAKESH 2150   72     150/ 15/ 17   N/A
S MID LAKE BUOY  2150   73 69  120/ 14/ 16 1011.0F   1/ 3
KENOSHA   LAKESH 2200   74     180/ 13/ 16 1010.2
$$

TC  - TEMPERATURE IN CELSIUS
VSB - VISIBILITY IN STATUTE MILES
WCI - WIND CHILL INDEX
HX  - HEAT INDEX




USA.gov is the U.S. government's official web portal to all federal, state and local government web resources and services.